Lincoln County, Oregon, United States
Lat: 44.65N, Lon: 123.85W
Wx Zone: ORZ004
Local Info
Past Weather Observations for Tuesday, April 15, 2014

NOTE: This archive is for the closest National Weather Service station to Lincoln County. Information may differ from the station used for current weather conditions.

Time Weather Temperature Dewpoint Humidity Pressure Winds Precip Visibility
23:55
Mostly Cloudy
45°F / 7°C 45°F / 7°C 100% 30.21 in
(1023 mb)
Calm - 7SM
23:35
Overcast
46°F / 8°C 45°F / 7°C 93% 30.21 in
(1023 mb)
Calm - 10SM
23:15
Overcast
46°F / 8°C 45°F / 7°C 93% 30.21 in
(1023 mb)
Calm - 10SM
22:55
Overcast
46°F / 8°C 46°F / 8°C 100% 30.21 in
(1023 mb)
Calm 0.02 in
(0.51 mm)
10SM
22:35
Overcast
46°F / 8°C 46°F / 8°C 100% 30.21 in
(1023 mb)
Calm 0.02 in
(0.51 mm)
10SM
22:15
Overcast
Drizzle
46°F / 8°C 46°F / 8°C 100% 30.21 in
(1023 mb)
Calm 0.02 in
(0.51 mm)
3SM
21:55
Overcast
Drizzle
50°F / 10°C 46°F / 8°C 88% 30.24 in
(1024 mb)
NW 6.9 mph
(NW 11 kph)
- 4SM
21:35
Overcast
Drizzle
50°F / 10°C 46°F / 8°C 88% 30.21 in
(1023 mb)
Calm - 5SM
21:15
Overcast
Drizzle
50°F / 10°C 46°F / 8°C 88% 30.21 in
(1023 mb)
NW 3.5 mph
(NW 6 kph)
- 5SM
20:55
Overcast
Drizzle
50°F / 10°C 46°F / 8°C 88% 30.24 in
(1024 mb)
Calm - 5SM
20:35
Overcast
Rain
50°F / 10°C 46°F / 8°C 88% 30.21 in
(1023 mb)
Calm - 7SM
20:15
Overcast
50°F / 10°C 45°F / 7°C 82% 30.24 in
(1024 mb)
Calm - 7SM
19:55
Overcast
Fog And Mist
50°F / 10°C 45°F / 7°C 82% 30.24 in
(1024 mb)
Calm - 5SM
19:35
Overcast
Fog And Mist
50°F / 10°C 45°F / 7°C 82% 30.21 in
(1023 mb)
Calm - 5SM
19:15
Overcast
Hazy
50°F / 10°C 45°F / 7°C 82% 30.21 in
(1023 mb)
Calm - 5SM
18:55
Overcast
Hazy
50°F / 10°C 45°F / 7°C 82% 30.21 in
(1023 mb)
Calm - 5SM
18:35
Mostly Cloudy
50°F / 10°C 45°F / 7°C 82% 30.21 in
(1023 mb)
Calm - 7SM
18:15
Partly Cloudy
50°F / 10°C 43°F / 6°C 76% 30.24 in
(1024 mb)
Calm - 7SM
17:55
Partly Cloudy
50°F / 10°C 43°F / 6°C 76% 30.24 in
(1024 mb)
NW 3.5 mph
(NW 6 kph)
- 7SM
17:35
Mostly Cloudy
50°F / 10°C 45°F / 7°C 82% 30.24 in
(1024 mb)
NW 3.5 mph
(NW 6 kph)
- 7SM
17:15
Clear
50°F / 10°C 45°F / 7°C 82% 30.27 in
(1025 mb)
NW 5.8 mph
(NW 9 kph)
- 10SM
16:55
Clear
50°F / 10°C 45°F / 7°C 82% 30.27 in
(1025 mb)
NW 5.8 mph
(NW 9 kph)
- 7SM
16:35
Clear
52°F / 11°C 45°F / 7°C 77% 30.27 in
(1025 mb)
NW 4.6 mph
(NW 7 kph)
- 10SM
16:15
Clear
52°F / 11°C 45°F / 7°C 77% 30.27 in
(1025 mb)
NW 6.9 mph
(NW 11 kph)
- 10SM
15:55
Clear
52°F / 11°C 45°F / 7°C 77% 30.27 in
(1025 mb)
NW 9.2 mph
(NW 15 kph)
- 10SM
15:35
Clear
54°F / 12°C 45°F / 7°C 72% 30.27 in
(1025 mb)
NW 8.1 mph
(NW 13 kph)
- 10SM
15:15
Partly Cloudy
52°F / 11°C 45°F / 7°C 77% 30.27 in
(1025 mb)
WNW 6.9 mph
(WNW 11 kph)
- 10SM
14:55
Clear
52°F / 11°C 45°F / 7°C 77% 30.27 in
(1025 mb)
NW 6.9 mph
(NW 11 kph)
- 10SM
14:35
Clear
52°F / 11°C 45°F / 7°C 77% 30.27 in
(1025 mb)
W 8.1 mph
(W 13 kph)
- 10SM
14:15
Partly Cloudy
54°F / 12°C 45°F / 7°C 72% 30.27 in
(1025 mb)
W 8.1 mph
(W 13 kph)
- 10SM
13:55
Partly Cloudy
52°F / 11°C 45°F / 7°C 77% 30.3 in
(1026 mb)
W 5.8 mph
(W 9 kph)
- 10SM
13:35
Mostly Cloudy
54°F / 12°C 45°F / 7°C 72% 30.3 in
(1026 mb)
W 4.6 mph
(W 7 kph)
- 10SM
13:15
Overcast
52°F / 11°C 45°F / 7°C 77% 30.3 in
(1026 mb)
W 6.9 mph
(W 11 kph)
- 10SM
12:55
Mostly Cloudy
52°F / 11°C 45°F / 7°C 77% 30.3 in
(1026 mb)
W 5.8 mph
(W 9 kph)
- 10SM
12:35
Partly Cloudy
54°F / 12°C 45°F / 7°C 72% 30.33 in
(1027 mb)
WNW 6.9 mph
(WNW 11 kph)
- 10SM
12:15
Partly Cloudy
52°F / 11°C 45°F / 7°C 77% 30.33 in
(1027 mb)
NW 6.9 mph
(NW 11 kph)
- 10SM
11:55
Clear
54°F / 12°C 45°F / 7°C 72% 30.33 in
(1027 mb)
WNW 8.1 mph
(WNW 13 kph)
- 10SM
11:35
Mostly Cloudy
52°F / 11°C 45°F / 7°C 77% 30.33 in
(1027 mb)
NW 6.9 mph
(NW 11 kph)
- 10SM
11:15
Overcast
52°F / 11°C 45°F / 7°C 77% 30.33 in
(1027 mb)
NW 5.8 mph
(NW 9 kph)
- 10SM
10:55
Partly Cloudy
52°F / 11°C 45°F / 7°C 77% 30.33 in
(1027 mb)
W 5.8 mph
(W 9 kph)
- 10SM
10:35
Clear
52°F / 11°C 45°F / 7°C 77% 30.33 in
(1027 mb)
W 5.8 mph
(W 9 kph)
- 10SM
10:15
Clear
52°F / 11°C 45°F / 7°C 77% 30.33 in
(1027 mb)
WNW 4.6 mph
(WNW 7 kph)
- 10SM
09:55
Clear
52°F / 11°C 45°F / 7°C 77% 30.33 in
(1027 mb)
W 5.8 mph
(W 9 kph)
- 10SM
09:35
Clear
52°F / 11°C 45°F / 7°C 77% 30.33 in
(1027 mb)
W 4.6 mph
(W 7 kph)
- 10SM
09:15
Clear
48°F / 9°C 43°F / 6°C 82% 30.3 in
(1026 mb)
W 4.6 mph
(W 7 kph)
- 10SM
08:55
Clear
50°F / 10°C 45°F / 7°C 82% 30.3 in
(1026 mb)
SSW 3.5 mph
(SSW 6 kph)
- 7SM
08:35
Partly Cloudy
48°F / 9°C 43°F / 6°C 82% 30.3 in
(1026 mb)
WNW 3.5 mph
(WNW 6 kph)
- 7SM
08:15
Clear
50°F / 10°C 43°F / 6°C 76% 30.3 in
(1026 mb)
Calm - 10SM
07:55
Clear
48°F / 9°C 43°F / 6°C 82% 30.3 in
(1026 mb)
Calm - 7SM
07:35
Mostly Cloudy
48°F / 9°C 45°F / 7°C 87% 30.3 in
(1026 mb)
Calm - 10SM
07:15
Overcast
46°F / 8°C 45°F / 7°C 93% 30.3 in
(1026 mb)
Calm - 10SM
06:55
Overcast
46°F / 8°C 45°F / 7°C 93% 30.3 in
(1026 mb)
E 3.5 mph
(E 6 kph)
- 10SM
06:35
Overcast
Fog And Mist
46°F / 8°C 45°F / 7°C 93% 30.3 in
(1026 mb)
N 4.6 mph
(N 7 kph)
- 5SM
06:15
Overcast
43°F / 6°C 43°F / 6°C 100% 30.3 in
(1026 mb)
Calm - 10SM
05:55
Fair
43°F / 6°C 41°F / 5°C 93% 30.3 in
(1026 mb)
Calm -
05:35
Mostly Cloudy
41°F / 5°C 39°F / 4°C 93% 30.3 in
(1026 mb)
Calm - 10SM
05:15
Partly Cloudy
43°F / 6°C 39°F / 4°C 87% 30.3 in
(1026 mb)
Calm - 10SM
04:55
Mostly Cloudy
45°F / 7°C 41°F / 5°C 87% 30.3 in
(1026 mb)
Calm - 10SM
04:35
Overcast
45°F / 7°C 41°F / 5°C 87% 30.3 in
(1026 mb)
Calm - 10SM
04:15
Mostly Cloudy
45°F / 7°C 41°F / 5°C 87% 30.3 in
(1026 mb)
Calm - 10SM
03:55
Mostly Cloudy
46°F / 8°C 43°F / 6°C 87% 30.3 in
(1026 mb)
Calm - 10SM
03:35
Mostly Cloudy
46°F / 8°C 43°F / 6°C 87% 30.3 in
(1026 mb)
N 3.5 mph
(N 6 kph)
- 10SM
03:15
Overcast
45°F / 7°C 41°F / 5°C 87% 30.3 in
(1026 mb)
Calm - 10SM
02:55
Mostly Cloudy
45°F / 7°C 41°F / 5°C 87% 30.3 in
(1026 mb)
Calm - 10SM
02:35
Mostly Cloudy
45°F / 7°C 41°F / 5°C 87% 30.3 in
(1026 mb)
Calm - 10SM
02:15
Partly Cloudy
46°F / 8°C 41°F / 5°C 82% 30.27 in
(1025 mb)
Calm - 10SM
01:55
Partly Cloudy
46°F / 8°C 43°F / 6°C 87% 30.3 in
(1026 mb)
N 4.6 mph
(N 7 kph)
- 7SM
01:35
Partly Cloudy
46°F / 8°C 43°F / 6°C 87% 30.3 in
(1026 mb)
N 4.6 mph
(N 7 kph)
- 10SM
01:15
Partly Cloudy
46°F / 8°C 43°F / 6°C 87% 30.3 in
(1026 mb)
N 6.9 mph
(N 11 kph)
- 10SM
00:55
Partly Cloudy
46°F / 8°C 41°F / 5°C 82% 30.3 in
(1026 mb)
NNW 9.2 mph
(NNW 15 kph)
- 10SM
00:35
Mostly Cloudy
48°F / 9°C 41°F / 5°C 76% 30.3 in
(1026 mb)
N 9.2 mph
(N 15 kph)
- 10SM
00:15
Mostly Cloudy
48°F / 9°C 43°F / 6°C 82% 30.3 in
(1026 mb)
N 5.8 mph
(N 9 kph)
- 10SM
Time Weather Temperature Dewpoint Humidity Pressure Winds Precip Visibility


Weather for websites

WeatherForYou.com, LLC is not responsible for any damages or problems caused by this service. Current weather conditions are obtained from the closest station including government and personal stations which may have varying degrees of accuracy. Weather forecasts are derived from the NOAA NDFD. Like all things, this site belongs to Jesus Christ... He just trusts me to maintain it. If you have any questions or comments email webmaster@weatherforyou.com

Copyright © 2014, WeatherForYou.com LLC. All rights reserved.